Temp
25 26 26 26 27 27 27 27 27 26 24 24 24 24 24 24 24 24 24 23 23 24
25 25 27 26 27 26 26 27 26 25 25 25 24 24 24 24 24 24 24 24 24 24
25 25 25 25 25 26 26 26 25 25 24 24 24 24 24 25 24 24 24 25 25 24
26 26 25 25 25 25 25 25 25 24 24 24 24 24 24 24 25 25 25 25 24 24
25 25 26 26 26 26 26 26 25 25 24 24 25 25 24 24 25 25 25 25 25 25
24 25 26 27 27 27 26 25 26 26 24 24 25 25 25 24 24 25 25 25 25 26
25 26 27 27 27 27 27 26 26 26 26 25 25 25 25 25 25 25 25 25 25 25
26 27 27 26 26 25 25 26 25 25 26 26 26 26 26 26 26 26 26 26 26 25
26 25 25 25 25 25 25 24 24 25 25 26 26 27 26 26 27 27 26 26 26 26
24 25 25 25 25 24 23 25 25 25 25 26 26 26 26 25 25 26 27 26 27 27
23 24 22 25 26 25 23 20 24 25 25 25 26 26 26 27 24 26 26 27 27 26
25 25 25 23 24 24 21 25 25 25 26 26 26 26 26 25 24 26 26 26 26 27
25 25 25 24 24 24 24 25 26 26 26 25 25 25 24 24 25 27 27 27 26 25
24 24 24 24 24 24 24 25 25 25 25 25 25 24 24 23 23 26 27 28 28 27
Height
831 834 838 841 843 844 845 847 850 852 853 854 855 855 856 856 857 857 856 856 856 854
824 828 830 835 838 840 841 842 845 848 850 850 851 851 851 851 852 852 852 851 851 850
817 820 824 829 833 835 836 838 839 841 844 845 845 844 845 846 846 847 847 846 845 845
816 818 819 822 826 829 832 833 833 834 837 839 839 840 839 840 841 842 842 842 840 841
814 816 817 818 822 824 827 828 826 828 831 832 833 835 836 836 835 836 837 836 837 837
808 811 814 815 819 819 821 822 822 823 825 827 827 828 829 829 829 829 830 832 832 833
806 808 809 812 814 814 816 817 817 816 817 819 820 821 822 824 824 824 825 826 828 828
804 806 806 807 807 809 810 811 811 812 812 813 813 813 815 817 818 819 820 820 821 822
798 799 800 798 799 802 803 804 804 806 807 807 807 807 808 810 811 813 814 813 813 814
795 799 803 794 792 795 802 801 799 799 801 801 802 800 801 803 806 806 806 806 807 807
793 797 798 795 789 788 792 796 793 792 790 798 797 796 795 797 798 799 800 800 801 802
792 791 790 791 791 796 802 801 795 791 785 793 795 791 789 790 793 793 793 793 793 795
792 791 789 791 795 798 799 797 794 793 791 792 790 788 786 785 785 786 786 785 786 787
795 793 792 791 792 791 790 788 786 786 786 784 782 782 783 781 781 780 780 777 778 780
Wind_Speed
24 22 21 20 18 15 13 13 13 15 16 17 17 16 15 15 15 14 15 15 16 17
22 22 21 19 18 17 16 13 13 14 16 17 17 17 16 17 17 17 16 17 17 18
21 21 20 18 19 19 17 16 14 16 16 18 19 18 17 17 18 17 17 16 16 18
17 17 18 19 20 20 20 19 16 16 18 19 19 19 18 18 16 17 18 16 18 19
14 13 16 16 20 20 21 20 18 18 21 22 21 20 21 20 19 19 19 17 16 17
14 18 13 15 19 18 20 20 20 19 21 23 23 23 24 22 22 21 21 19 18 18
14 15 14 19 19 17 18 19 20 20 22 23 24 24 25 24 23 23 22 19 18 16
13 13 15 14 13 16 18 21 20 21 22 23 22 22 24 25 24 22 21 19 17 17
15 12 10 7 8 12 16 17 17 19 21 22 22 20 23 23 18 17 19 19 19 17
13 9 9 8 3 7 20 20 20 18 19 21 20 20 21 23 20 18 18 18 18 18
11 11 9 5 14 12 42 47 15 13 14 19 21 21 20 20 17 19 18 18 18 18
9 13 10 5 4 18 32 19 10 13 10 15 19 17 16 18 17 20 20 19 20 19
10 10 12 13 14 18 18 13 8 9 11 14 14 14 17 15 16 22 22 22 23 25
13 14 15 14 14 13 12 10 8 10 10 10 9 11 15 18 16 21 24 25 25 25
Wind_Direction
221 224 232 234 238 239 239 249 253 247 242 237 237 238 237 242 247 248 248 252 258 271
216 219 223 233 237 238 238 243 241 248 247 244 240 238 235 241 244 248 253 257 259 260
213 213 219 225 235 239 238 238 244 237 244 242 241 234 231 239 245 244 246 254 259 261
218 217 216 220 227 235 242 239 238 239 240 244 245 244 232 233 240 243 249 247 253 259
214 226 230 229 235 234 240 243 234 236 241 240 242 244 241 238 239 241 246 247 246 253
198 251 241 251 248 240 240 241 240 237 241 240 239 240 241 239 239 241 244 247 245 259
230 234 255 253 249 248 245 248 248 236 236 239 242 239 241 242 244 249 251 253 258 260
237 253 254 245 253 256 254 259 252 246 245 241 237 237 236 240 245 250 254 254 251 253
225 222 229 238 250 262 261 255 246 245 243 241 239 241 239 234 238 243 251 247 244 243
201 174 223 184 218 290 300 257 241 241 246 247 246 241 244 245 238 239 241 237 237 238
195 197 210 223 46 21 336 278 245 238 247 263 257 252 249 249 228 234 238 241 237 236
232 252 265 262 217 203 240 270 262 273 280 267 267 267 259 249 232 233 232 233 232 231
225 223 233 238 226 222 233 252 265 258 259 258 270 274 277 257 234 237 234 231 231 227
227 233 232 237 242 245 247 262 271 282 282 281 278 275 269 272 249 248 241 239 230 230